Weather History for Santiago, Dominican Republic

Change the Weather History Date:

Thursday, February 20, 2014

  Actual Average Record
Temperature  
Mean Temperature 75 °F -  
Max Temperature 85 °F 86 °F 91 °F (1998)
Min Temperature 65 °F 66 °F 60 °F (2011)
Cooling Degree Days 10    
Growing Degree Days 25 (Base 50)    
Moisture  
Dew Point 69 °F    
Average Humidity 87    
Maximum Humidity 100    
Minimum Humidity 61    
Precipitation  
Precipitation 0.00 in 0.07 in - ()
Sea Level Pressure  
Sea Level Pressure 30.06 in    
Wind  
Wind Speed 7 mph ()    
Max Wind Speed 21 mph    
Max Gust Speed -    
Visibility 5.9 miles    
Events Rain    
Averages and records for this station are not official NWS values.
T = Trace of Precipitation, MM = Missing Value Source: Averaged Metar Reports

Daily Weather History Graph

Daily Weather History Graph

Search for Another Location

Airport:

Trip Planner

Search our weather history database for the weather conditions in past years. The results will help you decide how hot, cold, wet, or windy it might be!

Date:

Astronomy

Feb. 20, 2014 Rise Set
Actual Time 7:08 AM AST 6:44 PM AST
Civil Twilight 6:45 AM AST 7:06 PM AST
Nautical Twilight 6:20 AM AST 7:32 PM AST
Astronomical Twilight 5:54 AM AST 7:58 PM AST
Moon 11:44 PM AST (2/20) 10:36 AM AST (2/20)
Length of Visible Light 12h 20m
Length of Day
11h 36m
Waning Gibbous, 71% of the Moon is Illuminated
Feb 20
Waning Gibbous
Feb 22
Last Quarter
Mar 1
New
Mar 8
First Quarter
Mar 16
Full

Hourly Weather History & Observations

Time (AST) Temp. Heat Index Dew Point Humidity Pressure Visibility Wind Dir Wind Speed Gust Speed Precip Events Conditions
12:00 AM 69.8 °F - 69.8 °F 100% 30.09 in 6.2 mi SSE 4.6 mph - N/A   Mostly Cloudy
1:00 AM 69.8 °F - 68.0 °F 94% 30.06 in 6.2 mi ENE 4.6 mph - N/A   Mostly Cloudy
2:00 AM 69.8 °F - 68.0 °F 94% 30.06 in 6.2 mi SE 4.6 mph - N/A   Scattered Clouds
3:00 AM 77.0 °F - 68.0 °F 74% 30.04 in 6.2 mi East 10.4 mph - N/A   Scattered Clouds
4:00 AM 69.8 °F - 68.0 °F 94% 30.04 in 6.2 mi East 4.6 mph - N/A   Scattered Clouds
5:00 AM 68.0 °F - 68.0 °F 100% 30.01 in 6.2 mi ESE 4.6 mph - N/A   Scattered Clouds
6:00 AM 66.2 °F - 66.2 °F 100% 30.01 in 3.1 mi East 4.6 mph - N/A   Scattered Clouds
7:00 AM 66.2 °F - 66.2 °F 100% 30.04 in 3.1 mi ESE 4.6 mph - N/A   Scattered Clouds
8:00 AM 67 °F - 67 °F 99% 30.08 in 2 mi Calm Calm - -   Mist
8:00 AM 68.0 °F - 66.2 °F 94% 30.06 in 2.5 mi Calm Calm - N/A   Scattered Clouds
9:00 AM 71.6 °F - 69.8 °F 94% 30.06 in 6.2 mi SE 4.6 mph - N/A   Mostly Cloudy
10:00 AM 71.6 °F - 69.8 °F 94% 30.09 in 3.1 mi SE 8.1 mph - N/A Rain Rain
10:20 AM 71.6 °F - 69.8 °F 94% 30.12 in 5.0 mi ESE 9.2 mph - N/A Rain Rain
11:00 AM 75 °F - 72 °F 88% 30.12 in 6 mi East 11.2 mph - -   Haze
11:00 AM 75.2 °F - 71.6 °F 89% 30.12 in 6.2 mi East 11.5 mph - N/A   Mostly Cloudy
12:00 PM 78.8 °F - 71.6 °F 78% 30.09 in 6.2 mi SSE 11.5 mph - N/A   Mostly Cloudy
1:00 PM 80.6 °F 84.6 °F 71.6 °F 74% 30.06 in 6.2 mi SSE 9.2 mph - N/A   Scattered Clouds
2:00 PM 82.4 °F 87.2 °F 71.6 °F 70% 30.04 in 6.2 mi SE 12.7 mph - N/A   Mostly Cloudy
3:00 PM 82.4 °F 87.2 °F 71.6 °F 70% 30.01 in 6.2 mi ESE 20.7 mph - N/A   Mostly Cloudy
4:00 PM 78.8 °F - 71.6 °F 78% 30.01 in 6.2 mi SSE 11.5 mph - N/A   Mostly Cloudy
5:00 PM 81 °F - 70 °F 61% 30.03 in 7 mi ESE 15.7 mph - -  
5:00 PM 80.6 °F 83.9 °F 69.8 °F 70% 30.01 in 6.2 mi ESE 16.1 mph - N/A   Scattered Clouds
6:00 PM 78.8 °F - 69.8 °F 74% 30.04 in 6.2 mi ESE 13.8 mph - N/A   Scattered Clouds
7:00 PM 75.2 °F - 68.0 °F 78% 30.04 in 6.2 mi ESE 10.4 mph - N/A   Partly Cloudy
8:00 PM 72 °F - 67 °F 81% 30.06 in 10 mi East 11.2 mph - -   Partly Cloudy
8:00 PM 71.6 °F - 68.0 °F 88% 30.06 in 6.2 mi East 9.2 mph - N/A   Partly Cloudy
9:00 PM 69.8 °F - 68.0 °F 94% 30.06 in 6.2 mi ESE 9.2 mph - N/A   Partly Cloudy
10:00 PM 69.8 °F - 68.0 °F 94% 30.09 in 6.2 mi SE 4.6 mph - N/A   Partly Cloudy
11:00 PM 69 °F - 67 °F 89% 30.10 in 10 mi East 4.5 mph - -   Partly Cloudy
11:00 PM 68.0 °F - 66.2 °F 94% 30.09 in 6.2 mi East 4.6 mph - N/A   Scattered Clouds